Camden, AR

2:49 AM CST on December 14, 2017 (GMT -0600)
Harrell

Weather History for KCDH - March, 2014

Change the Weather History Date:

Monday, March 24, 2014

  Actual Average Record
Temperature  
Mean Temperature 48 °F -  
Max Temperature 64 °F 68 °F 83 °F (1939)
Min Temperature 32 °F 40 °F 27 °F (1952)
Degree Days  
Heating Degree Days 17    
Moisture  
Dew Point 29 °F    
Average Humidity 58    
Maximum Humidity 93    
Minimum Humidity 22    
Precipitation  
Precipitation 0.00 in - - ()
Sea Level Pressure  
Sea Level Pressure 30.19 in    
Wind  
Wind Speed - (North)    
Max Wind Speed -    
Max Gust Speed -    
Visibility 10 miles    
Events      
Averages and records for this station are not official NWS values.
T = Trace of Precipitation, MM = Missing Value Source: NWS Daily Summary

Daily Weather History Graph

Daily Weather History Graph

Search for Another Location

Airport or City:

Trip Planner

Search our weather history database for the weather conditions in past years. The results will help you decide how hot, cold, wet, or windy it might be!

Date:

Astronomy

Mar. 24, 2014 Rise Set
Actual Time 7:09 AM CDT 7:25 PM CDT
Civil Twilight 6:44 AM CDT 7:50 PM CDT
Nautical Twilight 6:15 AM CDT 8:19 PM CDT
Astronomical Twilight 5:45 AM CDT 8:49 PM CDT
Moon 2:24 AM CDT (3/24) 1:07 PM CDT (3/24)
Length of Visible Light 13h 06m
Length of Day
12h 16m
Last Quarter, 43% of the Moon is Illuminated
Mar 24
Last Quarter
Mar 30
New
Apr 7
First Quarter
Apr 15
Full
Apr 22
Last Quarter

Hourly Weather History & Observations

Time (CDT) Temp. Dew Point Humidity Pressure Visibility Wind Dir Wind Speed Gust Speed Precip Events Conditions
12:15 AM 37.4 °F 30.2 °F 75% 30.29 in 10.0 mi North - - N/A   Clear
12:35 AM 35.6 °F 32.0 °F 87% 30.29 in 10.0 mi North - - N/A   Clear
12:55 AM 35.6 °F 32.0 °F 87% 30.29 in 10.0 mi North - - N/A   Clear
1:15 AM 33.8 °F 30.2 °F 87% 30.29 in 10.0 mi North - - N/A   Clear
1:35 AM 35.6 °F 30.2 °F 81% 30.29 in 10.0 mi North - - N/A   Clear
1:55 AM 33.8 °F 30.2 °F 87% 30.28 in 10.0 mi North - - N/A   Clear
2:15 AM 32.0 °F 30.2 °F 93% 30.28 in 10.0 mi North - - N/A   Clear
2:35 AM 32.0 °F 30.2 °F 93% 30.28 in 10.0 mi North - - N/A   Clear
2:55 AM 32.0 °F 30.2 °F 93% 30.27 in 10.0 mi North - - N/A   Clear
3:15 AM 32.0 °F 30.2 °F 93% 30.27 in 10.0 mi North - - N/A   Clear
3:35 AM 32.0 °F 30.2 °F 93% 30.27 in 10.0 mi North - - N/A   Clear
3:55 AM 32.0 °F 28.4 °F 87% 30.26 in 10.0 mi North - - N/A   Clear
4:15 AM 32.0 °F 28.4 °F 87% 30.25 in 10.0 mi North - - N/A   Clear
4:35 AM 32.0 °F 30.2 °F 93% 30.25 in 10.0 mi North - - N/A   Clear
4:55 AM 32.0 °F 28.4 °F 87% 30.25 in 10.0 mi North - - N/A   Clear
5:15 AM 32.0 °F 28.4 °F 87% 30.25 in 10.0 mi North - - N/A   Clear
5:35 AM 32.0 °F 28.4 °F 87% 30.25 in 10.0 mi North - - N/A   Clear
5:55 AM 32.0 °F 28.4 °F 87% 30.25 in 10.0 mi North - - N/A   Clear
6:15 AM 32.0 °F 28.4 °F 87% 30.25 in 10.0 mi North - - N/A   Clear
6:35 AM 32.0 °F 28.4 °F 87% 30.25 in 10.0 mi North - - N/A   Clear
6:55 AM 32.0 °F 28.4 °F 87% 30.25 in 10.0 mi North - - N/A   Clear
7:15 AM 32.0 °F 28.4 °F 87% 30.26 in 10.0 mi North - - N/A   Clear
7:35 AM 32.0 °F 28.4 °F 87% 30.26 in 10.0 mi North - - N/A   Clear
7:55 AM 32.0 °F 28.4 °F 87% 30.26 in 10.0 mi North - - N/A   Clear
8:15 AM 35.6 °F 30.2 °F 81% 30.26 in 10.0 mi North - - N/A   Clear
8:35 AM 37.4 °F 28.4 °F 70% 30.27 in 10.0 mi North - - N/A   Clear
8:55 AM 41.0 °F 28.4 °F 61% 30.28 in 10.0 mi North - - N/A   Clear
9:15 AM 44.6 °F 28.4 °F 53% 30.28 in 10.0 mi North - - N/A   Clear
9:35 AM 46.4 °F 26.6 °F 46% 30.27 in 10.0 mi North - - N/A   Clear
9:55 AM 48.2 °F 26.6 °F 43% 30.27 in 10.0 mi North - - N/A   Clear
10:15 AM 48.2 °F 26.6 °F 43% 30.27 in 10.0 mi North - - N/A   Clear
10:35 AM 51.8 °F 26.6 °F 38% 30.26 in 10.0 mi North - - N/A   Clear
10:55 AM 53.6 °F 26.6 °F 35% 30.25 in 10.0 mi North - - N/A   Clear
11:15 AM 53.6 °F 26.6 °F 35% 30.25 in 10.0 mi North - - N/A   Clear
11:35 AM 55.4 °F 26.6 °F 33% 30.23 in 10.0 mi North - - N/A   Clear
11:55 AM 55.4 °F 26.6 °F 33% 30.22 in 10.0 mi North - - N/A   Clear
12:15 PM 57.2 °F 26.6 °F 31% 30.21 in 10.0 mi North - - N/A   Clear
12:35 PM 57.2 °F 26.6 °F 31% 30.20 in 10.0 mi North - - N/A   Clear
1:15 PM 59.0 °F 26.6 °F 29% 30.17 in 10.0 mi North - - N/A   Clear
1:35 PM 60.8 °F 26.6 °F 27% 30.16 in 10.0 mi North - - N/A   Clear
1:55 PM 62.6 °F 26.6 °F 26% 30.14 in 10.0 mi North - - N/A   Clear
2:15 PM 62.6 °F 26.6 °F 26% 30.13 in 10.0 mi North - - N/A   Clear
2:35 PM 62.6 °F 26.6 °F 26% 30.11 in 10.0 mi North - - N/A   Clear
2:55 PM 62.6 °F 24.8 °F 24% 30.10 in 10.0 mi North - - N/A   Clear
3:15 PM 62.6 °F 26.6 °F 26% 30.08 in 10.0 mi North - - N/A   Clear
3:35 PM 62.6 °F 24.8 °F 24% 30.07 in 10.0 mi North - - N/A   Clear
3:55 PM 64.4 °F 24.8 °F 22% 30.06 in 10.0 mi North - - N/A   Clear
4:15 PM 64.4 °F 26.6 °F 24% 30.06 in 10.0 mi North - - N/A   Clear
4:35 PM 62.6 °F 26.6 °F 26% 30.05 in 10.0 mi North - - N/A   Clear
4:55 PM 62.6 °F 24.8 °F 24% 30.05 in 10.0 mi North - - N/A   Clear
5:15 PM 62.6 °F 24.8 °F 24% 30.05 in 10.0 mi North - - N/A   Clear
5:35 PM 62.6 °F 26.6 °F 26% 30.05 in 10.0 mi North - - N/A   Clear
5:55 PM 60.8 °F 26.6 °F 27% 30.05 in 10.0 mi North - - N/A   Clear
6:15 PM 59.0 °F 26.6 °F 29% 30.06 in 10.0 mi North - - N/A   Clear
6:35 PM 59.0 °F 26.6 °F 29% 30.06 in 10.0 mi North - - N/A   Clear
6:55 PM 57.2 °F 26.6 °F 31% 30.07 in 10.0 mi North - - N/A   Clear
7:15 PM 53.6 °F 30.2 °F 41% 30.08 in 10.0 mi North - - N/A   Clear
7:35 PM 53.6 °F 30.2 °F 41% 30.09 in 10.0 mi North - - N/A   Clear
7:55 PM 51.8 °F 28.4 °F 41% 30.10 in 5.0 mi North - - N/A   Haze
8:15 PM 48.2 °F 32.0 °F 54% 30.11 in 10.0 mi North - - N/A   Clear
8:35 PM 46.4 °F 32.0 °F 57% 30.11 in 10.0 mi North - - N/A   Clear
8:55 PM 46.4 °F 32.0 °F 57% 30.12 in 10.0 mi North - - N/A   Clear
9:15 PM 44.6 °F 32.0 °F 61% 30.12 in 10.0 mi North - - N/A   Clear
9:35 PM 46.4 °F 30.2 °F 53% 30.13 in 10.0 mi North - - N/A   Clear
9:55 PM 44.6 °F 32.0 °F 61% 30.14 in 10.0 mi North - - N/A   Clear
10:15 PM 42.8 °F 32.0 °F 66% 30.15 in 10.0 mi North - - N/A   Clear
10:35 PM 41.0 °F 32.0 °F 70% 30.15 in 10.0 mi North - - N/A   Clear
10:55 PM 41.0 °F 32.0 °F 70% 30.15 in 10.0 mi North - - N/A   Clear
11:15 PM 41.0 °F 30.2 °F 65% 30.15 in 10.0 mi North - - N/A   Clear
11:35 PM 41.0 °F 32.0 °F 70% 30.15 in 10.0 mi North - - N/A   Clear
11:55 PM 39.2 °F 32.0 °F 75% 30.15 in 10.0 mi North - - N/A   Clear